Wind_Speed
3 3 3 2 2 3 4 4 5 5 5 5 5 6 5 5 5 5 5 5 4 4 4 4 4 5 5 5 5 6 6 6 6 6 6 7 8 8 8 8 8 8 8 8 8 8 8 7 7
2 2 2 3 3 3 4 5 5 5 5 5 5 5 5 5 5 5 5 5 5 4 4 5 5 5 5 5 5 6 6 6 7 6 6 7 8 8 8 8 8 8 8 9 9 9 9 9 9
2 2 2 3 3 4 4 5 6 6 5 5 5 5 5 5 5 5 5 5 5 5 5 5 5 5 5 5 5 6 6 7 7 7 7 7 8 8 8 9 9 9 9 9 9 9 9 9 9
2 3 3 2 3 4 5 6 6 6 5 6 6 6 5 5 5 5 5 6 6 5 5 5 5 5 5 5 6 6 7 7 7 7 7 8 8 8 8 9 9 9 9 9 9 9 10 10 10
2 2 2 3 4 4 5 6 6 6 5 6 6 6 5 5 6 6 6 6 5 5 5 5 5 6 6 6 6 7 7 7 7 7 7 8 8 8 8 9 9 9 9 10 10 10 10 11 11
2 2 2 3 4 4 5 5 6 7 6 6 7 6 6 6 6 6 6 6 6 6 6 6 6 6 6 7 7 7 7 7 7 7 7 8 8 9 9 9 9 9 10 10 10 10 10 11 12
2 2 2 3 4 4 5 6 7 7 7 7 7 7 6 6 6 6 6 6 7 6 6 6 6 6 6 7 7 7 7 7 8 8 8 8 8 9 9 10 10 10 10 11 11 12 12 12 12
3 2 3 3 4 5 5 6 6 7 7 7 7 7 6 6 6 7 7 7 7 7 7 7 7 7 7 7 8 8 8 8 9 9 9 9 9 9 9 10 10 10 10 11 11 12 13 13 13
3 2 3 4 5 5 6 6 6 7 7 7 7 7 7 7 7 8 8 8 8 8 9 8 8 8 8 8 9 9 8 9 9 9 9 9 9 10 10 10 10 10 10 11 11 12 13 13 13
3 3 4 5 6 6 6 6 6 6 7 7 7 7 8 8 9 9 9 9 9 9 9 9 9 9 9 9 9 9 9 9 10 10 10 10 10 10 10 11 10 10 10 11 12 13 13 13 12
3 4 5 6 6 6 6 6 7 8 7 7 8 8 8 9 9 10 10 10 11 10 9 9 9 9 9 9 9 9 9 9 10 10 10 11 11 11 11 11 11 11 11 11 12 12 13 12 12
4 4 5 5 6 6 6 7 8 8 8 8 8 9 9 9 10 10 10 10 10 10 9 10 10 10 10 10 9 10 10 10 11 11 11 11 11 11 11 11 11 12 12 12 12 13 13 13 13
5 5 5 5 6 7 7 8 8 8 8 9 9 10 10 10 10 10 10 10 10 10 10 11 11 11 10 10 10 11 11 11 12 12 11 11 11 12 12 12 11 11 12 12 13 13 13 14 14
6 6 6 6 7 8 8 8 9 8 9 9 10 10 10 10 10 10 10 10 10 10 10 11 11 11 11 10 11 11 11 12 12 12 12 12 12 12 12 12 12 12 12 12 12 13 13 13 13
7 7 7 7 8 9 9 9 9 9 10 10 11 11 11 11 11 11 11 11 11 10 11 11 11 11 12 11 11 12 12 12 12 12 12 12 12 12 12 12 12 13 13 13 13 13 13 13 14
8 8 8 8 9 10 10 10 10 10 10 11 11 11 11 11 12 12 12 11 12 11 11 11 12 12 12 12 12 13 13 12 12 12 12 12 12 12 12 12 13 13 14 14 14 13 13 13 13
8 9 9 10 11 11 11 11 10 11 12 12 12 12 12 12 13 13 12 12 12 12 12 12 12 13 13 13 13 13 13 13 12 12 12 12 12 12 12 12 13 13 14 13 12 12 12 12 12
9 9 11 12 12 12 12 12 11 12 13 13 13 13 13 13 13 13 13 13 13 13 13 13 13 13 14 14 14 13 13 13 13 12 12 13 13 13 12 13 13 13 13 13 12 12 12 12 12
10 10 12 13 14 14 14 14 13 13 14 14 13 13 13 13 13 13 13 13 13 13 13 13 13 14 14 14 14 14 13 13 13 13 13 13 13 13 13 13 13 14 14 13 12 12 12 12 11
11 12 13 15 15 15 15 15 14 14 14 14 14 14 14 13 13 13 14 14 13 13 13 13 14 14 14 15 15 14 14 14 14 14 14 14 13 13 13 13 13 14 13 13 13 13 12 12 12
12 13 14 15 15 15 16 16 15 14 14 15 15 15 16 15 14 14 15 14 13 13 14 14 14 15 15 15 15 15 15 15 15 15 15 14 14 14 14 14 14 13 13 13 13 13 13 13 13
14 14 14 15 16 16 16 17 15 15 14 16 16 16 16 16 16 16 16 15 14 14 15 15 15 15 15 15 15 15 15 15 15 15 15 15 15 15 15 15 15 14 14 14 13 13 13 14 14
15 15 15 15 15 16 16 17 16 16 15 16 17 17 17 17 16 16 16 16 16 15 15 16 16 16 15 16 16 16 15 15 16 16 15 15 15 15 15 15 15 15 14 14 13 13 13 14 14
15 15 15 15 15 15 14 16 17 16 17 18 18 18 18 17 17 17 16 16 17 16 16 16 16 16 16 17 17 16 16 16 16 16 16 16 16 16 16 16 15 15 15 15 14 14 14 14 15
15 15 14 15 15 15 14 16 17 18 19 19 19 19 19 18 18 17 17 17 17 18 17 17 16 17 16 17 17 16 16 16 16 16 16 16 16 16 16 17 16 16 16 15 15 14 15 15 15
15 15 14 14 13 14 16 17 19 20 20 20 20 20 20 19 19 19 18 18 18 18 17 17 18 17 17 17 17 18 17 16 16 16 16 17 17 17 16 16 17 17 17 17 16 16 16 16 16
16 15 15 16 16 17 16 18 20 21 21 20 20 20 20 20 20 19 19 19 18 18 18 19 19 18 18 18 18 17 17 17 17 17 18 18 18 18 18 17 17 17 17 18 18 18 18 18 18
16 16 16 16 17 17 15 17 21 22 22 21 21 20 20 21 20 19 19 19 19 19 20 20 20 19 19 19 18 18 18 18 18 19 19 19 20 19 19 19 19 19 19 19 19 20 20 19 19
16 16 17 17 18 17 17 19 20 22 23 22 22 22 21 21 21 20 20 20 20 21 21 21 21 20 20 20 19 20 20 20 20 20 20 20 21 21 21 20 20 20 20 20 20 20 20 20 20
18 18 18 18 19 18 20 22 22 23 24 24 23 23 22 22 21 21 21 21 21 22 22 22 22 22 21 21 20 21 22 22 22 22 22 21 22 22 22 22 21 21 21 21 21 21 21 21 20
Wind_Direction
355 349 345 343 337 346 351 351 351 347 338 334 324 316 317 316 312 306 304 304 306 304 297 294 296 296 289 285 282 281 280 281 278 274 271 269 261 257 255 251 251 252 254 257 257 257 253 252 256
341 331 329 329 329 344 344 345 346 343 340 337 328 323 321 316 312 309 304 304 306 305 297 294 298 303 296 288 286 282 280 284 280 280 275 269 264 261 257 254 256 258 256 258 258 256 253 256 256
320 312 318 320 327 337 336 335 334 331 331 328 323 321 320 321 312 306 303 303 304 301 298 301 302 305 302 295 294 293 289 290 288 283 279 272 266 264 260 258 259 260 258 257 256 258 257 259 259
296 302 304 323 332 338 336 329 328 321 321 322 322 319 315 321 322 315 304 297 302 302 301 302 304 304 300 296 297 296 293 293 291 287 281 272 269 266 262 262 261 261 258 256 256 260 262 259 258
282 296 308 326 333 336 336 333 329 323 323 321 319 319 319 319 317 318 315 307 303 302 304 304 304 303 300 299 300 299 297 298 296 290 282 277 273 269 265 265 261 261 260 258 257 257 258 259 258
293 295 300 324 327 324 330 328 324 325 323 318 316 318 320 319 316 317 313 309 308 307 306 309 305 302 300 299 302 301 299 299 299 295 289 284 278 271 270 267 265 265 264 263 258 256 260 261 259
285 293 312 316 319 322 326 323 324 324 323 319 315 312 317 320 318 316 315 311 308 308 307 310 306 301 299 297 299 298 298 299 301 297 292 286 281 277 273 270 268 267 267 267 262 258 259 262 263
291 306 303 312 317 328 327 324 323 325 326 323 317 313 318 316 313 313 314 313 308 306 305 307 306 304 298 298 299 298 297 298 299 297 296 291 285 280 279 275 271 267 268 270 266 262 261 263 265
283 292 306 315 314 324 325 323 323 325 325 324 322 317 316 312 309 312 314 312 305 306 306 306 306 305 301 297 297 298 298 299 299 297 295 292 289 284 280 278 273 272 272 274 272 268 263 265 268
284 296 311 307 310 315 317 317 318 320 322 322 321 318 313 311 311 311 314 315 312 307 309 309 306 305 304 301 300 300 299 301 302 300 296 292 291 287 280 276 273 271 272 275 275 273 268 267 267
282 282 296 306 308 311 314 314 314 315 319 318 316 316 312 309 309 311 313 313 316 316 314 313 312 310 309 307 305 304 303 304 304 302 297 293 292 287 282 280 275 272 272 273 273 273 271 269 267
291 294 300 305 304 306 310 312 312 311 314 311 312 313 312 309 308 310 311 312 312 315 312 313 315 314 311 311 309 307 306 305 305 303 300 296 294 289 284 282 278 274 274 275 273 275 274 271 269
290 297 302 301 296 302 308 310 310 311 313 311 310 311 309 308 309 308 307 307 309 310 312 313 312 315 314 312 310 309 309 305 304 302 301 300 298 293 288 288 284 279 277 277 277 277 274 272 267
294 297 301 303 303 306 308 308 307 310 312 312 310 308 310 310 310 309 307 306 306 304 303 307 309 311 311 310 311 309 309 309 306 302 301 299 297 294 291 290 286 280 279 279 279 277 273 271 266
289 295 300 304 305 307 308 306 305 309 310 309 308 309 307 306 309 307 307 307 305 303 303 304 306 308 308 307 306 306 306 305 304 301 299 297 295 294 292 289 286 282 282 281 280 277 276 272 267
289 290 293 299 301 303 304 305 306 307 306 306 306 306 307 306 307 307 306 305 303 301 302 302 302 304 306 306 305 306 305 305 302 300 299 298 297 297 295 291 288 287 284 282 283 279 277 275 272
281 286 294 298 299 302 304 304 303 303 303 304 304 303 305 307 307 307 307 304 302 301 301 302 300 300 302 304 304 306 304 305 305 301 299 300 300 299 296 293 292 291 288 284 283 279 277 276 273
283 288 293 293 297 301 305 304 302 302 302 301 301 302 304 307 306 306 307 304 300 299 299 301 298 297 299 300 301 302 304 305 304 302 300 299 300 299 297 296 295 292 289 285 284 280 277 276 273
280 284 288 290 294 298 301 300 301 302 302 302 302 302 303 304 304 304 305 304 299 297 296 299 298 296 298 299 298 298 299 302 302 301 301 299 299 298 297 296 295 293 290 286 282 280 278 275 271
276 277 280 285 291 296 298 299 300 300 302 303 301 300 302 303 303 303 303 301 297 296 296 299 300 296 295 296 296 296 297 299 300 299 297 296 295 296 297 297 296 293 290 286 282 280 276 272 269
273 275 281 286 291 292 296 299 300 301 303 300 298 297 299 300 301 302 302 301 297 297 297 297 299 298 296 295 295 294 295 297 297 296 294 292 290 290 292 295 295 293 288 287 284 279 275 271 271
272 276 281 286 290 293 296 297 300 301 301 301 300 298 299 301 301 300 300 300 297 295 297 297 298 296 293 293 294 293 293 295 296 296 296 295 292 289 289 291 290 288 286 286 282 278 276 273 272
274 277 281 285 288 289 294 296 297 297 300 299 299 298 300 300 299 298 298 297 295 293 296 296 297 297 294 292 291 291 292 292 294 295 294 293 291 289 287 287 286 285 283 282 280 278 277 275 274
272 274 279 284 287 287 291 292 290 293 293 294 298 298 298 298 298 298 295 294 293 291 293 294 296 294 295 294 293 290 289 290 292 292 291 291 290 288 287 286 285 283 280 278 278 278 277 277 276
271 273 278 285 291 293 288 287 284 287 292 294 295 295 295 296 296 296 295 293 291 290 290 290 292 293 292 293 291 290 289 289 290 290 290 290 290 288 287 285 286 282 277 276 277 277 278 276 276
274 274 274 275 276 278 280 284 287 289 291 291 291 293 294 294 294 294 293 292 292 290 288 287 288 292 291 290 290 288 287 288 288 288 289 289 289 288 288 285 285 282 276 276 277 278 279 276 277
273 272 273 273 273 273 276 282 284 287 288 289 290 292 292 292 292 292 292 293 291 289 288 287 288 289 289 288 290 289 287 287 287 286 288 288 288 286 285 283 283 281 277 275 276 276 277 277 278
273 274 273 272 272 273 274 277 280 284 289 290 289 290 291 290 289 289 289 291 290 288 290 290 289 288 289 289 288 286 285 285 285 285 285 286 286 284 283 282 282 281 278 276 275 275 277 278 279
275 273 272 271 272 273 271 271 276 281 287 288 287 288 289 289 288 288 288 289 290 289 290 291 290 287 288 289 287 287 286 285 285 286 285 285 285 285 283 282 281 281 278 276 276 277 278 278 277
277 276 274 271 272 273 275 275 279 281 285 286 287 287 287 288 287 287 287 287 289 289 288 289 289 288 286 287 285 287 285 284 285 286 286 286 286 285 284 283 280 280 279 278 277 276 277 276 276
Height
5867 5867 5867 5867 5868 5867 5866 5865 5865 5864 5864 5864 5863 5863 5863 5863 5863 5865 5862 5861 5861 5861 5860 5860 5860 5859 5859 5859 5859 5859 5858 5858 5858 5858 5858 5858 5858 5859 5859 5859 5859 5860 5860 5860 5861 5861 5861 5861 5862
5867 5867 5868 5867 5867 5866 5866 5865 5865 5864 5864 5863 5863 5862 5862 5862 5862 5862 5861 5860 5860 5860 5860 5859 5859 5858 5858 5858 5858 5858 5857 5857 5857 5857 5857 5857 5857 5857 5858 5858 5858 5858 5859 5859 5859 5860 5860 5860 5860
5867 5867 5868 5867 5866 5866 5865 5865 5865 5864 5863 5863 5863 5862 5862 5862 5861 5861 5860 5860 5859 5859 5859 5858 5858 5858 5857 5857 5857 5857 5856 5856 5856 5856 5856 5856 5856 5856 5856 5856 5857 5857 5857 5858 5858 5858 5858 5859 5859
5867 5867 5867 5867 5865 5865 5865 5864 5864 5863 5863 5862 5862 5862 5861 5861 5860 5860 5859 5859 5859 5858 5858 5857 5857 5857 5856 5856 5856 5855 5855 5855 5855 5855 5855 5854 5854 5855 5855 5855 5855 5855 5856 5856 5856 5857 5857 5857 5857
5866 5867 5866 5865 5865 5865 5864 5864 5863 5863 5862 5862 5861 5861 5860 5860 5859 5859 5859 5858 5858 5858 5857 5857 5856 5856 5855 5855 5855 5854 5854 5854 5853 5853 5853 5853 5853 5853 5853 5853 5854 5854 5854 5854 5855 5855 5855 5855 5856
5866 5866 5866 5865 5865 5864 5864 5863 5863 5862 5862 5861 5861 5860 5860 5859 5859 5858 5858 5857 5857 5856 5856 5856 5855 5854 5854 5854 5853 5853 5853 5852 5852 5852 5852 5851 5851 5851 5851 5852 5852 5852 5852 5852 5853 5853 5853 5853 5854
5866 5865 5865 5864 5864 5864 5864 5863 5862 5862 5861 5861 5860 5860 5859 5858 5858 5857 5857 5856 5856 5855 5855 5855 5854 5853 5853 5853 5852 5852 5851 5851 5851 5850 5850 5850 5850 5850 5850 5850 5850 5850 5850 5850 5850 5851 5851 5851 5852
5865 5865 5864 5864 5864 5863 5863 5862 5862 5861 5861 5860 5859 5859 5858 5858 5857 5857 5856 5855 5855 5854 5854 5853 5853 5852 5852 5851 5851 5850 5850 5850 5849 5849 5849 5848 5848 5848 5848 5848 5848 5848 5848 5848 5848 5848 5849 5849 5849
5864 5866 5864 5864 5863 5863 5863 5862 5862 5861 5860 5859 5858 5858 5857 5857 5856 5856 5855 5854 5854 5853 5852 5852 5851 5851 5850 5850 5849 5849 5849 5848 5848 5847 5847 5846 5846 5846 5846 5846 5846 5845 5846 5846 5846 5846 5846 5847 5847
5864 5864 5863 5863 5863 5863 5862 5862 5861 5860 5859 5859 5858 5857 5856 5856 5855 5855 5854 5853 5852 5851 5851 5850 5850 5849 5849 5848 5848 5847 5847 5846 5846 5846 5845 5845 5844 5844 5844 5844 5843 5843 5843 5844 5843 5844 5844 5844 5844
5863 5863 5863 5863 5862 5862 5861 5861 5860 5859 5859 5858 5857 5856 5855 5855 5854 5853 5853 5852 5851 5850 5849 5849 5848 5848 5847 5846 5846 5846 5845 5845 5844 5844 5843 5843 5842 5842 5842 5841 5841 5841 5841 5841 5841 5841 5841 5842 5842
5863 5863 5862 5862 5862 5861 5861 5860 5859 5858 5858 5857 5856 5855 5855 5854 5853 5852 5851 5850 5849 5849 5848 5847 5847 5846 5846 5845 5844 5844 5843 5843 5842 5842 5841 5841 5840 5840 5839 5839 5839 5838 5839 5839 5839 5839 5839 5839 5840
5862 5862 5862 5862 5861 5860 5860 5859 5858 5858 5857 5856 5855 5854 5853 5852 5851 5851 5850 5849 5848 5847 5847 5846 5845 5845 5844 5843 5843 5842 5842 5841 5840 5840 5839 5839 5838 5837 5837 5836 5836 5836 5836 5836 5836 5836 5836 5836 5837
5861 5861 5861 5860 5860 5859 5859 5858 5857 5856 5855 5855 5854 5853 5852 5851 5850 5849 5848 5847 5847 5846 5845 5845 5844 5843 5842 5842 5841 5840 5839 5839 5838 5837 5837 5836 5836 5835 5834 5834 5833 5833 5833 5833 5833 5833 5833 5833 5834
5860 5860 5860 5859 5858 5858 5858 5857 5856 5855 5854 5853 5852 5851 5850 5849 5848 5847 5846 5846 5845 5844 5844 5843 5842 5841 5841 5840 5839 5838 5837 5837 5836 5835 5835 5834 5833 5833 5832 5832 5831 5830 5830 5830 5830 5830 5830 5830 5831
5858 5858 5858 5858 5857 5856 5858 5856 5855 5853 5852 5851 5850 5849 5848 5847 5846 5845 5844 5844 5843 5842 5842 5841 5840 5839 5839 5838 5837 5836 5835 5834 5834 5833 5832 5831 5831 5830 5829 5829 5828 5828 5827 5827 5827 5827 5827 5827 5828
5857 5857 5857 5857 5856 5855 5855 5854 5853 5852 5851 5850 5849 5848 5847 5846 5845 5844 5842 5842 5841 5840 5839 5839 5838 5837 5837 5836 5835 5834 5833 5832 5831 5830 5830 5829 5828 5828 5827 5826 5825 5825 5825 5824 5824 5824 5825 5825 5825
5855 5855 5855 5855 5854 5853 5852 5852 5851 5850 5849 5847 5847 5846 5845 5844 5843 5841 5841 5840 5839 5838 5837 5836 5836 5835 5834 5833 5832 5832 5831 5830 5829 5828 5827 5826 5826 5825 5824 5824 5823 5822 5822 5822 5822 5822 5822 5822 5822
5853 5853 5853 5852 5852 5851 5850 5849 5849 5848 5846 5845 5844 5843 5842 5841 5840 5839 5838 5837 5836 5835 5835 5834 5833 5832 5832 5831 5830 5829 5828 5828 5827 5826 5825 5824 5823 5822 5822 5821 5820 5820 5819 5819 5819 5819 5819 5820 5820
5851 5851 5850 5850 5849 5849 5848 5847 5846 5845 5844 5843 5842 5840 5840 5839 5838 5837 5836 5834 5833 5833 5832 5831 5830 5829 5829 5828 5827 5826 5825 5825 5824 5823 5822 5821 5820 5820 5819 5818 5818 5817 5817 5817 5817 5817 5817 5817 5817
5848 5848 5848 5847 5846 5846 5845 5844 5843 5842 5841 5840 5839 5838 5837 5836 5835 5834 5833 5831 5831 5830 5829 5828 5827 5826 5826 5825 5824 5823 5823 5822 5821 5820 5819 5818 5817 5817 5816 5815 5815 5814 5814 5814 5814 5814 5814 5815 5815
5845 5845 5844 5844 5843 5842 5842 5841 5840 5839 5838 5837 5836 5835 5834 5833 5832 5831 5830 5828 5827 5827 5826 5825 5824 5823 5822 5821 5821 5820 5819 5819 5818 5816 5816 5815 5814 5813 5813 5812 5812 5812 5811 5811 5811 5811 5811 5811 5812
5842 5841 5841 5841 5840 5839 5839 5838 5838 5835 5835 5834 5833 5832 5831 5830 5829 5828 5826 5825 5824 5823 5822 5821 5820 5819 5818 5818 5817 5816 5816 5815 5814 5813 5812 5811 5810 5810 5809 5809 5809 5808 5808 5808 5808 5808 5808 5808 5808
5838 5838 5837 5837 5836 5836 5836 5835 5834 5832 5831 5831 5830 5829 5828 5827 5826 5825 5823 5822 5821 5820 5819 5818 5817 5816 5815 5814 5813 5812 5812 5811 5810 5809 5809 5808 5807 5806 5806 5805 5805 5805 5804 5804 5804 5804 5804 5805 5805
5834 5834 5834 5833 5833 5833 5833 5832 5831 5829 5828 5827 5827 5826 5824 5823 5822 5821 5820 5819 5818 5816 5815 5814 5813 5812 5811 5810 5809 5808 5807 5807 5806 5805 5805 5804 5803 5803 5802 5801 5801 5801 5800 5800 5800 5800 5801 5801 5800
5830 5831 5831 5831 5830 5830 5829 5828 5827 5825 5825 5824 5823 5822 5820 5819 5818 5817 5816 5815 5814 5812 5811 5810 5809 5808 5807 5806 5805 5804 5803 5802 5802 5801 5801 5800 5799 5798 5798 5797 5797 5796 5796 5796 5796 5796 5796 5796 5796
5826 5826 5827 5827 5826 5826 5826 5824 5823 5821 5821 5820 5818 5817 5816 5815 5814 5813 5812 5811 5810 5809 5807 5806 5805 5803 5802 5802 5801 5800 5799 5798 5798 5797 5796 5796 5795 5794 5793 5793 5792 5792 5791 5791 5791 5791 5791 5791 5791
5822 5822 5822 5822 5821 5821 5822 5821 5819 5817 5816 5815 5814 5813 5812 5811 5809 5808 5808 5806 5805 5804 5803 5801 5800 5799 5797 5797 5796 5795 5794 5794 5793 5792 5792 5791 5790 5789 5789 5788 5787 5787 5786 5786 5786 5786 5786 5786 5786
5818 5818 5817 5817 5817 5817 5817 5818 5814 5813 5812 5811 5809 5808 5807 5806 5805 5804 5803 5802 5801 5799 5798 5797 5795 5794 5793 5792 5791 5790 5789 5789 5788 5787 5786 5785 5785 5784 5783 5782 5782 5781 5781 5781 5780 5780 5780 5780 5780
5813 5813 5813 5813 5813 5812 5812 5813 5810 5808 5807 5805 5804 5803 5802 5801 5800 5799 5798 5797 5795 5794 5793 5791 5790 5789 5788 5787 5785 5784 5783 5783 5782 5781 5780 5780 5779 5778 5777 5776 5775 5775 5775 5774 5774 5774 5774 5774 5774